This is the latest recevied weather packets stored in our database for station/object WS2Z. If no packets are shown the sender has not sent any weather packets the latest 10 day(s).
| Time | Temp. | Humidity | Pressure | Rain* | Wind** | Luminosity | Snow |
|---|---|---|---|---|---|---|---|
| 1777769907 | 22.78° C | 92% | 1013.9 hPa | 0 mm | - | 0 W/m² | - |
| 1777769605 | 22.78° C | 93% | 1013.9 hPa | 0 mm | - | 0 W/m² | - |
| 1777769301 | 22.78° C | 92% | 1013.9 hPa | 0 mm | - | 0 W/m² | - |
| 1777768998 | 22.78° C | 92% | 1013.8 hPa | 0 mm | - | 0 W/m² | - |
| 1777768696 | 22.22° C | 92% | 1013.7 hPa | 0 mm | - | 0 W/m² | - |
| 1777768393 | 22.22° C | 92% | 1013.8 hPa | 0 mm | - | 0 W/m² | - |
| 1777768090 | 22.22° C | 92% | 1013.8 hPa | 0 mm | - | 0 W/m² | - |
| 1777767787 | 22.22° C | 92% | 1013.9 hPa | 0 mm | - | 0 W/m² | - |
| 1777767483 | 22.22° C | 92% | 1014 hPa | 0 mm | - | 0 W/m² | - |
| 1777767179 | 22.78° C | 91% | 1013.6 hPa | 0 mm | - | 0 W/m² | - |
| 1777766877 | 22.78° C | 91% | 1013.7 hPa | 0 mm | - | 0 W/m² | - |
| 1777766574 | 22.78° C | 91% | 1013.6 hPa | 0 mm | - | 1 W/m² | - |
| 1777766271 | 22.78° C | 90% | 1013.5 hPa | 0 mm | - | 1 W/m² | - |
| 1777765969 | 22.78° C | 89% | 1013.5 hPa | 1.27 mm | - | 2 W/m² | - |
| 1777765664 | 22.78° C | 88% | 1013.2 hPa | 14.99 mm | - | 5 W/m² | - |
| 1777765362 | 23.89° C | 84% | 1013.4 hPa | 15.49 mm | - | 5 W/m² | - |
| 1777765058 | 25.56° C | 76% | 1013.5 hPa | 0 mm | - | 3 W/m² | - |
| 1777764755 | 26.67° C | 73% | 1013.5 hPa | 0 mm | - | 1 W/m² | - |
| 1777764451 | 27.22° C | 81% | 1012.8 hPa | 0 mm | - | 16 W/m² | - |
| 1777764148 | 27.22° C | 81% | 1012.8 hPa | 0 mm | - | 30 W/m² | - |
| 1777763845 | 27.22° C | 81% | 1012.7 hPa | 0 mm | - | 31 W/m² | - |
| 1777763542 | 27.78° C | 80% | 1012.6 hPa | 0 mm | - | 33 W/m² | - |
| 1777763241 | 27.78° C | 80% | 1012.6 hPa | 0 mm | - | 42 W/m² | - |
| 1777762939 | 27.78° C | 79% | 1012.5 hPa | 0 mm | - | 45 W/m² | - |
| 1777762634 | 27.78° C | 79% | 1012.5 hPa | 0 mm | - | 52 W/m² | - |
* Rain latest hour (hover to see other rain measurements)
** Current wind speed in m/s (hover to see current wind gust speed)